STARLINK-35790

Last updated on Fri Dec 19 2025 00:02:10 GMT+0000 (Coordinated Universal Time)

1 67055U 25294AB 25351.83335648 -.01420154 60299-3 -31751-2 0 9998 2 67055 43.0000 151.2252 0001726 279.7443 158.8001 15.96946171 2129
UTC large
Height (km)
Speed (km/s)
/
Latitude / Longitude
Inclination (degrees)
Orbital Period (minutes)
Azimuth
Elevation
Range (km)
Doppler Factor

Next 0 passes for location: London (51.5072 / 0.1276)

Sorry there are no passes over London.